Location: *
(48.0430°N, 4.4880°W)
Time: 03:39:32
(UTC+00:00)

Daily predictions for brighter satellites

Satellite Brightness Start Highest point End
(mag) Time Altitude Azimuth Time Altitude Azimuth Time Altitude Azimuth
SL-16 R/B 4.4 02:16:17 21° NE 02:16:17 21° NE 02:18:17 10° NE
ADEOS II 4.3 02:27:06 10° NNE 02:28:59 21° NE 02:28:59 21° NE
Cosmos 2322 Rocket 3.7 02:48:50 32° NE 02:48:50 32° NE 02:51:53 10° NE
USA 267 3.7 02:51:15 10° NE 02:56:29 58° ENE 02:56:29 58° ENE
Cosmos 2360 Rocket 3.6 02:59:56 34° E 02:59:56 34° E 03:04:10 10° NE
Cosmos 1980 Rocket 4.0 03:07:30 23° N 03:07:30 23° N 03:09:56 10° NNE
Nadezhda 1 Rocket 4.4 03:04:21 10° N 03:10:42 61° ENE 03:10:45 61° E
Cosmos 1745 Rocket 4.4 03:14:22 55° E 03:14:33 55° E 03:20:37 10° NNE
Cosmos 1844 Rocket 3.6 03:20:51 42° ESE 03:20:51 42° ESE 03:24:49 10° SE
NOSS 3-1 (A) 4.2 03:21:26 43° N 03:21:26 43° N 03:26:43 10° NE
Lacrosse 4 Rocket 4.0 03:27:39 14° NNE 03:27:39 14° NNE 03:28:23 10° NNE
Cosmos 2333 Rocket 4.3 03:28:23 12° SSE 03:32:14 23° ESE 03:36:34 10° NE
USA 234 3.3 03:26:11 10° SE 03:31:50 66° SSE 03:31:50 66° SSE
Cosmos 2278 Rocket 4.3 03:28:30 10° N 03:33:04 24° NE 03:37:37 10° E
Resurs 1-4 Rocket 4.3 03:31:40 10° N 03:32:40 14° NNW 03:32:40 14° NNW
Cosmos 1844 4.1 03:33:25 23° NNW 03:37:01 61° ENE 03:42:45 10° SE
Cosmos 2098 Rocket 4.4 03:40:56 39° S 03:44:00 79° E 03:51:30 10° N
Cosmos 1386 Rocket 4.4 03:47:05 63° S 03:48:15 86° E 03:54:42 10° N
BREEZE-M DEB (TANK) 4.2 03:50:38 27° SE 03:50:38 27° SE 03:52:05 10° SE
ATLAS 3B R/B 4.0 03:43:59 12° NNW 03:49:26 34° NNE 03:55:32 10° E
Cosmos 1544 Rocket 4.2 03:52:11 10° N 04:01:30 - SSE 03:55:57 53° NE
SL-16 R/B 2.9 03:58:09 40° NNW 03:58:09 40° NNW 04:02:38 10° NNE
Cosmos 2322 4.1 03:56:17 43° S 03:57:58 61° ESE 04:03:38 10° NNE
CZ-2D R/B 4.4 03:57:22 10° NNW 03:57:48 11° NNW 03:57:48 11° NNW
ADEOS 3.8 03:59:35 10° NNE 04:04:48 66° ESE 04:07:15 32° S
CENTAUR R/B 3.9 03:57:35 10° NW 04:05:01 48° NE 04:13:13 10° ESE
ATLAS 2AS CENTAUR R/B 4.5 03:58:25 10° S 04:05:20 34° ESE 04:12:18 10° NE
Cosmos 1378 4.5 04:05:27 34° ESE 04:06:10 38° E 04:09:42 10° NNE
USA 238 DEB 3.9 04:01:41 16° NW 04:07:40 78° NE 04:15:06 10° SE
USA 238 3.9 04:01:47 16° NW 04:07:47 78° NE 04:15:11 10° SE
COSMOS 2455 3.0 04:05:49 42° S 04:07:53 70° ESE 04:13:55 10° NE
Celestis-02/Orion 38 4.5 04:03:39 10° SSE 04:08:49 89° ENE 04:14:09 10° NNW
Cosmos 2237 4.1 04:08:49 67° SW 04:09:34 79° WNW 04:15:21 10° NNE
ADEOS II 3.5 04:07:06 10° N 04:09:55 25° NNW 04:09:55 25° NNW
Cosmos 2219 Rocket 3.1 04:08:49 16° S 04:13:04 46° ESE 04:18:23 10° NE
Spot 2 4.0 04:10:38 10° NNE 04:14:13 68° NNE 04:14:13 68° NNE
Meteor 2-21 4.4 04:17:49 49° SW 04:19:10 61° WNW 04:25:20 10° N
COSMOS 2428 3.3 04:18:13 15° S 04:22:45 55° ESE 04:28:16 10° NE
Gblst 52 Del rocket 4.3 04:22:38 46° WNW 04:24:04 62° N 04:29:46 10° ENE
Meteor 1-23 Rocket 4.5 04:30:22 43° WNW 04:30:28 43° WNW 04:35:47 10° N
Cosmos 2322 Rocket 3.1 04:30:40 30° NW 04:30:46 30° NW 04:35:42 10° NNE
Cosmos 1842 3.6 04:30:18 20° S 04:32:55 66° E 04:36:51 10° NNE
Cosmos 1709 Rocket 3.9 04:27:55 15° SSW 04:33:13 74° W 04:39:35 10° N
NOSS 3-2 (A) 4.0 04:27:40 10° NW 04:35:09 88° SW 04:43:31 10° SE
Cosmos 1733 3.1 04:31:41 10° N 04:35:35 85° E 04:39:26 10° S
ARIANE 5 R/B 4.2 04:33:28 10° NNW 04:35:33 17° NW 04:35:33 17° NW
USA 267 3.6 04:34:22 10° NE 04:40:41 53° NNW 04:43:49 29° W
NOSS 2-2 (E) 3.5 04:40:35 40° SSW 04:41:47 68° SE 04:46:00 10° NE
Cosmos 2360 Rocket 2.6 04:41:44 37° W 04:43:00 43° NW 04:48:24 10° NNE
CZ-4B R/B 3.9 04:39:51 10° NNE 04:43:54 47° E 04:47:42 10° S
COSMOS 2441 4.3 04:43:20 10° NNE 04:48:17 85° WNW 04:53:11 10° SSW
Cosmos 1980 Rocket 4.3 04:49:16 10° NW 04:50:28 11° NNW 04:51:57 10° NNW
IDEFIX/ARIANE 42P 2.7 04:45:29 10° N 04:50:36 53° WNW 04:53:39 23° SW
Cosmos 1975 Rocket 4.2 04:51:35 27° NW 04:51:35 27° NW 04:54:43 10° N
Aureole 1 Rocket 3.8 04:45:57 10° SSW 04:52:50 87° WNW 04:58:03 10° NNE
BREEZE-M R/B 4.1 04:51:10 32° WSW 04:53:46 87° SSE 05:04:17 10° ENE
NOSS 3-2 (C) 4.0 04:48:54 10° NW 04:56:23 88° NE 05:04:47 10° SE
Intercosmos 25 4.3 04:53:25 10° NNW 04:57:46 51° W 05:04:37 10° S
MSX 3.7 04:52:09 10° N 04:57:52 70° WNW 05:03:32 10° SSW
NOSS 8 (F) 4.1 04:59:18 52° WSW 04:59:53 68° NW 05:03:01 10° NE
COSMO-SKYMED 1 3.6 04:56:28 10° SE 05:00:38 48° ENE 05:04:50 10° N
Cosmos 1844 Rocket 3.5 05:02:45 26° W 05:02:53 26° WSW 05:07:25 10° SSW
Meteor 1-22 Rocket 4.4 04:58:54 10° NNW 05:03:56 40° W 05:08:50 10° SSW
CZ-2C R/B 2.5 05:00:40 10° NNE 05:05:53 83° WNW 05:11:05 10° SSW
Cosmos 2074 Rocket 4.0 05:02:23 10° S 05:08:38 87° E 05:14:54 10° N
Cosmos 2181 Rocket 4.2 05:03:56 10° NNW 05:10:00 47° W 05:15:58 10° SSW
Okean O Rocket 3.9 05:06:19 10° NE 05:10:07 27° E 05:13:52 10° SSE
Meteor 1-21 4.1 05:07:02 10° SSW 05:12:37 72° WNW 05:18:16 10° N
PAYLOAD A 3.9 05:10:10 10° N 05:14:51 57° WNW 05:19:39 10° SSW
NOSS 3-4 (A) 4.3 05:09:23 10° SSW 05:15:09 50° ESE 05:21:15 10° NE
NOSS 3-4 (C) 4.4 05:09:28 10° SSW 05:15:15 49° ESE 05:21:21 10° NE
Cosmos 1953 2.6 05:11:31 10° N 05:15:35 70° E 05:19:34 10° SSE
Cosmos 2333 Rocket 2.2 05:10:28 10° SW 05:16:00 64° WNW 05:21:42 10° NNE
USA 234 4.3 05:11:21 10° S 05:16:26 24° SW 05:19:14 18° W
PSLV R/B 4.1 05:14:02 10° NNE 05:17:46 65° ESE 05:21:27 10° S
Cosmos 2278 Rocket 2.1 05:12:06 10° NNW 05:17:47 76° WSW 05:23:26 10° SSE
Cosmos 1726 Rocket 4.4 05:14:06 10° N 05:18:21 52° ENE 05:22:33 10° SSE
NOSS 2-2 (D) 3.2 05:16:45 20° SW 05:19:15 69° NW 05:23:31 10° NE
Cosmos 1758 3.3 05:16:50 10° NNW 05:20:47 59° W 05:24:42 10° S
H-2A R/B 3.1 05:17:30 10° N 05:21:12 34° WNW 05:24:32 13° SW
Cosmos 2251 Rocket 4.2 05:17:50 18° WSW 05:21:16 36° WNW 05:26:15 10° N
Cosmos 1726 3.9 05:23:05 10° N 05:26:28 34° ENE 05:29:49 10° SE
Cosmos 2058 Rocket 4.4 05:22:33 10° N 05:26:46 43° ENE 05:30:58 10° SSE
CZ-4B R/B 3.9 05:24:26 10° N 05:28:13 55° WNW 05:32:09 10° SSW
NOSS 0 Rocket 4.0 05:23:13 10° SSW 05:29:23 86° ESE 05:35:36 10° NNE
Cosmos 614 Rocket 4.1 05:25:40 10° SSW 05:30:53 79° ESE 05:36:08 10° NNE
Cosmos 2228 3.1 05:29:25 10° N 05:33:43 79° E 05:37:58 10° SSE
Cosmos 1025 Rocket 3.5 05:29:50 10° SW 05:33:45 35° WNW 05:37:44 10° N
ATLAS 3B R/B 2.6 05:34:03 10° NW 05:40:45 79° SW 05:47:36 10° SSE
Cosmos 1536 Rocket 4.5 05:38:22 10° SW 05:42:03 27° WNW 05:45:45 10° NNW
ALOS 3.1 05:38:15 10° NNE 05:42:52 57° E 05:47:27 10° S
SL-16 R/B 4.1 05:40:38 10° NW 05:42:55 12° NNW 05:45:12 10° N
Cosmos 921 Rocket 3.8 05:41:57 10° NW 05:45:44 30° W 05:49:26 10° SSW
SKYMED 2 3.6 05:44:22 10° S 05:48:38 57° W 05:52:56 10° NNW
PAYLOAD B 4.4 05:43:42 10° NNE 05:49:19 81° ESE 05:54:52 10° SSW
Meteor 1-4 Rocket 2.4 05:47:29 10° SSW 05:51:01 76° WNW 05:54:31 10° N
GP-B 3.0 05:47:36 10° S 05:52:02 72° W 05:56:29 10° N
CZ-4B DEB 4.2 05:46:36 10° NNE 05:52:08 87° WNW 05:57:36 10° SSW
Meteor 1-31 Rocket 3.6 05:49:14 10° N 05:52:33 29° WNW 05:55:51 10° SW
COSMOS 2455 3.8 05:49:04 10° W 05:54:21 30° NW 05:59:39 10° NNE
Cosmos 44 Rocket 4.2 05:50:07 10° NNW 05:54:44 47° NE 05:59:15 10° ESE
ATLAS 2AS CENTAUR R/B 3.1 05:47:50 10° SW 05:55:52 75° NW 06:03:55 10° NE
NOSS 2-2 (C) 4.1 05:52:25 10° WSW 05:55:55 36° NW 06:00:02 10° NNE
CENTAUR R/B 3.3 05:48:19 10° NW 05:56:14 65° WSW 06:04:46 10° SSE
Cosmos 2219 Rocket 2.9 05:52:05 10° WSW 05:57:09 34° NW 06:02:16 10° NNE
Cosmos 1892 Rocket 3.6 05:55:40 10° S 06:00:07 87° W 06:04:35 10° N
Cosmos 2237 Rocket 2.2 05:55:12 10° SW 06:00:51 70° WNW 06:06:35 10° NNE
Cosmos 1908 3.9 05:57:35 10° N 06:01:25 59° ENE 06:05:12 10° SSE
Cosmos 1190 Rocket 4.0 05:56:17 10° SSW 06:01:33 66° WNW 06:06:51 10° NNE
Cosmos 1470 4.0 05:59:34 10° NW 06:02:35 21° W 06:05:34 10° SW
Cosmos 44 3.5 06:00:53 10° NW 06:04:59 40° WSW 06:09:00 10° S
Cosmos 407 Rocket 3.6 06:01:31 10° SW 06:06:33 54° WNW 06:11:35 10° NNE
SeaSat 1 3.3 06:02:04 10° NE 06:06:56 55° ESE 06:11:45 10° SSW
Cosmos 2154 Rocket 4.1 06:01:05 10° SSW 06:07:11 59° WNW 06:13:19 10° N
COSMOS 2428 3.6 06:02:19 10° WSW 06:07:19 31° NW 06:12:19 10° NNE
Cosmos 1484 Rocket 3.2 06:07:09 10° N 06:10:39 38° WNW 06:14:11 10° SW
